Weather History for Toledo, OH

Change the Weather History Date:

Sunday, November 10, 2013

  Actual Average Record
Temperature  
Mean Temperature 42 °F 44 °F  
Max Temperature 48 °F 53 °F 68 °F (1999)
Min Temperature 35 °F 35 °F 19 °F (1973)
Degree Days  
Heating Degree Days 23 21  
Month to date heating degree days 201 195  
Since 1 July heating degree days 738 721  
Cooling Degree Days 0 0  
Month to date cooling degree days 0 0  
Year to date cooling degree days 793 793  
Moisture  
Dew Point 29 °F    
Average Humidity 58    
Maximum Humidity 71    
Minimum Humidity 45    
Precipitation  
Precipitation 0.00 in 0.08 in 1.14 in (2002)
Month to date precipitation 0.22 0.89  
Year to date precipitation 32.63 29.59  
Snow  
Snow 0.00 in 0.00 in - ()
Month to date snowfall T 0.3  
Since 1 July snowfall T 0.5  
Since 1 September snowfall T 0.5  
Snow Depth 0.00 in    
Sea Level Pressure  
Sea Level Pressure 30.17 in    
Wind  
Wind Speed 12 mph (West)    
Max Wind Speed 26 mph    
Max Gust Speed 33 mph    
Visibility 10 miles    
Events      
T = Trace of Precipitation, MM = Missing Value Source: NWS Daily Summary

Daily Weather History Graph

Daily Weather History Graph

Search for Another Location

Airport:

Trip Planner

Search our weather history database for the weather conditions in past years. The results will help you decide how hot, cold, wet, or windy it might be!

Date:

Astronomy

Nov. 10, 2013 Rise Set
Actual Time 7:18 AM EST 5:19 PM EST
Civil Twilight 6:48 AM EST 5:48 PM EST
Nautical Twilight 6:15 AM EST 6:22 PM EST
Astronomical Twilight 5:42 AM EST 6:54 PM EST
Moon 1:29 PM EST (11/10) No Moon Set
Length of Visible Light 11h 00m
Length of Day
10h 01m
First Quarter, 55% of the Moon is Illuminated
Nov 10
First Quarter
Nov 17
Full
Nov 25
Last Quarter
Dec 2
New
Dec 9
First Quarter

Hourly Weather History & Observations

Time (EST) Temp. Windchill Dew Point Humidity Pressure Visibility Wind Dir Wind Speed Gust Speed Precip Events Conditions
12:52 AM 46.0 °F 41.4 °F 37.0 °F 71% 29.96 in 10.0 mi West 9.2 mph - N/A   Mostly Cloudy
1:52 AM 46.0 °F 38.8 °F 30.9 °F 56% 29.96 in 10.0 mi West 18.4 mph 29.9 mph N/A   Partly Cloudy
2:52 AM 45.0 °F 38.5 °F 28.9 °F 53% 29.98 in 10.0 mi West 13.8 mph 23.0 mph N/A   Overcast
3:52 AM 45.0 °F 38.2 °F 28.9 °F 53% 29.99 in 10.0 mi West 15.0 mph 24.2 mph N/A   Overcast
4:52 AM 44.1 °F 37.7 °F 28.9 °F 55% 30.01 in 10.0 mi West 12.7 mph 21.9 mph N/A   Overcast
5:52 AM 43.0 °F 35.1 °F 28.0 °F 56% 30.04 in 10.0 mi NW 17.3 mph 29.9 mph N/A   Overcast
6:52 AM 42.1 °F 34.5 °F 24.1 °F 49% 30.08 in 10.0 mi WNW 15.0 mph 21.9 mph N/A   Overcast
7:52 AM 42.1 °F 36.1 °F 26.1 °F 53% 30.12 in 10.0 mi WNW 10.4 mph - N/A   Overcast
8:52 AM 42.1 °F 34.5 °F 28.0 °F 58% 30.14 in 10.0 mi WNW 15.0 mph 20.7 mph N/A   Overcast
9:52 AM 42.1 °F 34.9 °F 28.0 °F 58% 30.17 in 10.0 mi WNW 13.8 mph - N/A   Overcast
10:52 AM 43.0 °F 35.7 °F 28.0 °F 56% 30.21 in 10.0 mi WNW 15.0 mph 20.7 mph N/A   Overcast
11:52 AM 44.1 °F 36.5 °F 28.9 °F 55% 30.22 in 10.0 mi West 17.3 mph - N/A   Overcast
12:52 PM 46.9 °F - 28.0 °F 48% 30.22 in 10.0 mi WNW 21.9 mph 28.8 mph N/A   Scattered Clouds
1:52 PM 46.0 °F 39.9 °F 28.0 °F 50% 30.22 in 10.0 mi West 13.8 mph 27.6 mph N/A   Overcast
2:52 PM 46.9 °F - 27.0 °F 46% 30.25 in 10.0 mi WNW 16.1 mph - N/A   Overcast
3:52 PM 46.0 °F 39.3 °F 28.0 °F 50% 30.26 in 10.0 mi WNW 16.1 mph - N/A   Partly Cloudy
4:52 PM 46.0 °F 41.0 °F 28.0 °F 50% 30.27 in 10.0 mi West 10.4 mph - N/A   Clear
5:52 PM 39.9 °F 35.8 °F 28.9 °F 65% 30.28 in 10.0 mi West 5.8 mph - N/A   Clear
6:52 PM 37.9 °F 32.7 °F 28.9 °F 70% 30.30 in 10.0 mi West 6.9 mph - N/A   Clear
7:52 PM 37.0 °F 31.6 °F 28.9 °F 73% 30.30 in 10.0 mi West 6.9 mph - N/A   Clear
8:52 PM 37.0 °F 32.4 °F 28.9 °F 73% 30.30 in 10.0 mi WSW 5.8 mph - N/A   Clear
9:52 PM 37.0 °F 34.5 °F 28.9 °F 73% 30.30 in 10.0 mi SW 3.5 mph - N/A   Clear
10:52 PM 37.0 °F 33.3 °F 28.9 °F 73% 30.30 in 10.0 mi WSW 4.6 mph - N/A   Clear
11:52 PM 37.0 °F 34.5 °F 28.9 °F 73% 30.28 in 10.0 mi SW 3.5 mph - N/A   Clear